AU224 Weather Reports


time (UTC)temp
F
wind
direction
speed
knots
gust
knots
rain 1hr
in
rain 24hr
in
rain mn
in
humidity
%
barometer
mb
20260509204554 57 90 0.0 3.5 0.00 0.00 0.00 60 1011.1
20260509203047 58 0 0.9 3.5 0.00 0.00 0.00 60 1011.2
20260509201605 58 0 0.9 4.3 0.00 0.00 0.00 59 1011.3
20260509200104 59 0 0.0 5.2 0.00 0.00 0.00 59 1011.4
20260509194546 59 91 0.0 0.9 0.00 0.00 0.00 57 1011.3
20260509193046 60 0 0.0 0.0 0.00 0.00 0.00 56 1011.2
20260509191540 61 0 0.0 2.6 0.00 0.00 0.00 55 1011.0
20260509190048 62 0 0.0 0.0 0.00 0.00 0.00 53 1011.0
20260509184556 63 0 0.0 0.0 0.00 0.00 0.00 52 1011.1
20260509183041 64 0 0.0 1.7 0.00 0.00 0.00 51 1010.9
20260509181548 64 0 0.0 6.1 0.00 0.00 0.00 50 1010.9
20260509180043 65 0 0.0 7.8 0.00 0.00 0.00 50 1010.8
20260509174549 65 0 0.0 4.3 0.00 0.00 0.00 49 1010.9
20260509173051 66 94 0.0 6.1 0.00 0.00 0.00 47 1010.8
20260509171542 67 61 0.9 9.6 0.00 0.00 0.00 46 1010.9
20260509170043 68 67 0.9 8.7 0.00 0.00 0.00 45 1010.8
20260509164545 68 360 1.7 9.6 0.00 0.00 0.00 44 1010.8
20260509163051 67 80 1.7 7.0 0.00 0.00 0.00 45 1010.9
20260509161549 68 91 0.9 5.2 0.00 0.00 0.00 44 1011.1
20260509160049 68 0 0.0 4.3 0.00 0.00 0.00 44 1011.1
20260509154542 70 0 0.0 1.7 0.00 0.00 0.00 41 1011.2
20260509153046 71 0 0.0 7.0 0.00 0.00 0.00 41 1011.4
20260509151555 72 57 0.9 3.5 0.00 0.00 0.00 40 1011.4
20260509150044 70 0 0.9 5.2 0.00 0.00 0.00 43 1011.5
20260509144600 71 71 0.9 5.2 0.00 0.00 0.00 40 1011.6
20260509143113 71 0 0.0 7.8 0.00 0.00 0.00 39 1011.7
20260509141542 72 5 0.0 4.3 0.00 0.00 0.00 40 1011.7
20260509140057 69 360 0.0 0.9 0.00 0.00 0.00 43 1011.8
20260509134600 69 0 0.0 7.0 0.00 0.00 0.00 44 1012.0
20260509133047 71 0 0.9 7.0 0.00 0.00 0.00 42 1012.1
20260509131541 70 32 0.0 7.0 0.00 0.00 0.00 43 1012.2
20260509130056 70 0 0.0 7.8 0.00 0.00 0.00 42 1012.4
20260509124549 71 352 3.5 8.7 0.00 0.00 0.00 42 1012.5
20260509123100 70 76 0.0 8.7 0.00 0.00 0.00 42 1012.6
20260509121607 72 83 0.0 7.0 0.00 0.00 0.00 42 1012.7
20260509120049 71 0 0.9 3.5 0.00 0.00 0.00 45 1012.8
20260509114545 70 49 0.0 4.3 0.00 0.00 0.00 45 1012.9
20260509113056 70 0 0.0 7.8 0.00 0.00 0.00 44 1013.0
20260509111602 71 84 0.9 8.7 0.00 0.00 0.00 46 1013.2
20260509110049 70 29 0.9 7.0 0.00 0.00 0.00 47 1013.2
20260509104552 68 0 0.9 6.1 0.00 0.00 0.00 47 1013.4
20260509103101 70 163 0.0 7.0 0.00 0.00 0.00 46 1013.5
20260509101616 69 305 0.0 6.1 0.00 0.00 0.00 44 1013.8
20260509100047 68 0 0.0 2.6 0.00 0.00 0.00 48 1013.9
20260509094543 68 37 0.9 5.2 0.00 0.00 0.00 47 1014.0
20260509093044 67 68 1.7 8.7 0.00 0.00 0.00 49 1013.9
20260509091545 66 137 0.0 4.3 0.00 0.00 0.00 51 1014.0
20260509090043 66 0 0.0 6.1 0.00 0.00 0.00 53 1013.9
20260509084540 64 0 0.0 2.6 0.00 0.00 0.00 55 1014.0
20260509083042 64 360 0.0 4.3 0.00 0.00 0.00 56 1014.0
20260509081546 62 0 0.0 4.3 0.00 0.00 0.00 56 1013.9
20260509080042 61 153 0.0 4.3 0.00 0.00 0.00 63 1014.0
20260509074548 59 0 0.0 0.9 0.00 0.00 0.00 68 1014.0
20260509073050 58 105 0.0 3.5 0.00 0.00 0.00 70 1013.9
20260509071558 57 0 0.0 0.0 0.00 0.00 0.00 71 1014.1
20260509070047 56 0 0.0 0.0 0.00 0.00 0.00 73 1014.2
20260509064558 55 0 0.0 0.0 0.00 0.00 0.00 72 1014.3
20260509063047 55 0 0.0 0.0 0.00 0.00 0.00 70 1014.3
20260509061547 53 0 0.0 0.0 0.00 0.00 0.00 73 1014.0
20260509060044 51 0 0.0 0.0 0.00 0.00 0.00 75 1014.0
20260509054556 49 0 0.0 0.0 0.00 0.00 0.00 78 1014.0
20260509053049 48 0 0.0 0.0 0.00 0.00 0.00 80 1014.0
20260509051542 47 0 0.0 0.0 0.00 0.00 0.00 78 1013.9
20260509050042 47 0 0.0 0.0 0.00 0.00 0.00 77 1013.9
20260509044547 47 0 0.0 0.0 0.00 0.00 0.00 77 1013.7
20260509043043 47 0 0.0 0.0 0.00 0.00 0.00 76 1013.6
20260509041609 47 0 0.0 0.0 0.00 0.00 0.00 76 1013.5
20260509040041 47 0 0.0 0.0 0.00 0.00 0.00 76 1013.5
20260509034542 47 0 0.0 0.0 0.00 0.00 0.00 76 1013.3
20260509033043 47 0 0.0 0.0 0.00 0.00 0.00 75 1013.2
20260509031547 47 0 0.0 0.0 0.00 0.00 0.00 75 1013.3
20260509030045 47 0 0.0 0.0 0.00 0.00 0.00 76 1013.3
20260509024541 47 0 0.0 0.0 0.00 0.00 0.00 76 1013.3
20260509023104 47 0 0.0 0.0 0.00 0.00 0.00 75 1013.4
20260509021547 47 0 0.0 0.0 0.00 0.00 0.00 75 1013.2
20260509020053 47 0 0.0 0.0 0.00 0.00 0.00 75 1013.2
20260509014542 47 0 0.0 0.0 0.00 0.00 0.00 75 1013.3
20260509013046 47 0 0.0 0.0 0.00 0.00 0.00 74 1013.2
20260509011538 47 0 0.0 0.0 0.00 0.00 0.00 74 1013.0
20260509010044 47 0 0.0 0.0 0.00 0.00 0.00 74 1013.0
20260509004544 47 0 0.0 0.0 0.00 0.00 0.00 74 1013.0
20260509003043 47 0 0.0 0.0 0.00 0.00 0.00 74 1012.9
20260509001542 48 0 0.0 0.0 0.00 0.00 0.00 73 1013.2
20260509000046 48 0 0.0 0.0 0.00 0.00 0.00 71 1013.3
20260508234542 48 0 0.0 0.0 0.00 0.00 0.00 70 1013.4
20260508233044 48 0 0.0 0.0 0.00 0.00 0.00 70 1013.4
20260508231551 49 0 0.0 0.0 0.00 0.00 0.00 70 1013.4
20260508230050 49 0 0.0 0.0 0.00 0.00 0.00 70 1013.5
20260508224551 49 0 0.0 0.0 0.00 0.00 0.00 70 1013.5
20260508223047 49 0 0.0 0.0 0.00 0.00 0.00 70 1013.4
20260508221541 50 0 0.0 0.0 0.00 0.00 0.00 69 1013.5
20260508220048 50 0 0.0 0.0 0.00 0.00 0.00 68 1013.4
20260508214550 51 0 0.0 0.0 0.00 0.00 0.00 67 1013.4
20260508213043 51 0 0.0 0.0 0.00 0.00 0.00 67 1013.4
20260508211548 52 0 0.0 0.0 0.00 0.00 0.00 66 1013.2
20260508210044 52 0 0.0 0.0 0.00 0.00 0.00 66 1013.2